{"data":{"norad_id":63904,"intl_designator":"2025-095Q","name":"STARLINK-34092","alt_names":[],"object_type":"PAYLOAD","status":"ACTIVE","operator":null,"country":"US","launch_date":"2025-05-10","launch_site_code":"AFETR","launch_vehicle":null,"mission":null,"orbit_class":"UNKNOWN","rcs_meters":null,"size_class":null,"mass_kg":null,"dimensions":null,"purposes":["comms"],"wikipedia_slug":null,"has_3d_model":false,"image_url":null,"decayed_at":null,"tle_current":{"epoch":"2026-09-20T09:40:50.635776Z","epoch_age_seconds":155475,"freshness":"FRESH","line1":"1 63904U 25095Q   26263.40336384  .00015354  00000+0  56606-3 0  9996","line2":"2 63904  42.9972 156.8437 0003204 261.1205  98.9284 15.27592819 77550","mean_motion":15.27592819,"eccentricity":0.0003204,"inclination_deg":42.9972,"raan_deg":156.8437,"arg_perigee_deg":261.1205,"mean_anomaly_deg":98.9284,"bstar":0.00056606,"rev_number":7755,"period_min":94.265957661588,"perigee_km":480.81239988367,"apogee_km":485.20902333727,"semimajor_km":6861.1477116105,"source":"CELESTRAK","updated_at":"2026-09-21T09:00:35.145784Z"}}}